Location: Proctor
(47.8934°N, 114.3048°W)
Time: 22:26:47
(UTC+00:00)

Tiros 1 despin weight - Pass Details

Date: 26 June 2024
Orbit: 576 x 620 km, 48.2° (Epoch: 19 July)

Event Time Altitude Azimuth Distance (km) Brightness Sun altitude
Rises 18:19:08 0° 227° (SW) 2,870 ? 60.6°
Reaches altitude 10° 18:21:32 10° 220° (SW) 1,973 ? 60.9°
Maximum altitude 18:25:46 40° 151° (SSE) 923 ? 61.3°
Drops below altitude 10° 18:30:02 10° 82° (E) 1,990 ? 61.7°
Sets 18:32:27 0° 75° (ENE) 2,898 ? 62.0°
